Voltar ao catálogo

CZ-4C DEB

AtivoSSO
NORAD 55837·DEBRIS·🇨🇳 China

Lançado Mar 9, 2023 de Taiyuan Satellite Launch Center

Loading…

Próximas Passagens (próximas 24 horas)

TLE

AtualizadoSource: Space-Track

Época: Sep 14, 2026, 01:04 UTC

1 55837U 23030B   26257.04444741  .00000317  00000-0  22377-3 0  9991
2 55837  98.9802 268.8730 0002388 309.4246  50.6710 14.05160776180251

Acompanhe CZ-4C DEB em tempo real com AllMySat

Download on the App Store